Location: Unspecified
(0.0000°N, 0.0000°E)
Time: 16:39:44
(UTC+00:00)

S-56A Canister/Altair - Pass Details

Date: 13 December 2018
Orbit: 633 x 2499 km, 38.9° (Epoch: 17 June)

Event Time Altitude Azimuth Distance (km) Brightness Sun altitude
Rises 00:02:29 0° 229° (SW) 3,229 - -66.8°
Reaches altitude 10° 00:04:34 10° 229° (SW) 2,438 - -66.7°
Maximum altitude 00:10:18 89° 318° (NW) 1,065 - -66.5°
Drops below altitude 10° 00:19:01 10° 48° (NE) 3,620 - -66.1°
Sets 00:22:45 0° 48° (NE) 4,910 - -65.8°
